Change the Weather History Date:

Friday, March 15, 2013

  Actual Average (KHDO) Record (KHDO)
Temperature  
Mean Temperature 66 °F -  
Max Temperature 82 °F 70 °F 88 °F (2002)
Min Temperature 50 °F 47 °F 30 °F (1999)
Growing Degree Days 16 (Base 50)    
Moisture  
Dew Point 48 °F    
Average Humidity 58    
Maximum Humidity 97    
Minimum Humidity 25    
Precipitation  
Precipitation 0.00 in - - ()
Sea Level Pressure  
Sea Level Pressure 30.12 in    
Wind  
Wind Speed 9 mph (SE)    
Max Wind Speed 17 mph    
Max Gust Speed 23 mph    
Visibility 10 miles    
Events      
Averages and records for this station are not official NWS values.
T = Trace of Precipitation, MM = Missing Value Source: NWS Daily Summary

Daily Weather History Graph

Daily Weather History Graph

Search for Another Location

Airport or City:

Trip Planner

Search our weather history database for the weather conditions in past years. The results will help you decide how hot, cold, wet, or windy it might be!

Date:

Astronomy

Mar. 15, 2013 Rise Set
Actual Time 7:48 AM CDT 7:47 PM CDT
Civil Twilight 7:24 AM CDT 8:11 PM CDT
Nautical Twilight 6:57 AM CDT 8:38 PM CDT
Astronomical Twilight 6:29 AM CDT 9:06 PM CDT
Moon 10:00 AM CDT (3/15) 11:40 PM CDT (3/15)
Length of Visible Light 12h 46m
Length of Day
11h 59m
Waxing Crescent, 15% of the Moon is Illuminated
Mar 15
Waxing Crescent
Mar 19
First Quarter
Mar 27
Full
Apr 2
Last Quarter
Apr 10
New

Hourly Weather History & Observations

Time (CDT) Temp. Dew Point Humidity Pressure Visibility Wind Dir Wind Speed Gust Speed Precip Events Conditions
12:15 AM 65.3 °F 49.3 °F 56% 30.24 in 10.0 mi SE 13.8 mph 18.4 mph N/A   Clear
12:35 AM 64.6 °F 49.8 °F 59% 30.24 in 10.0 mi SE 10.4 mph - N/A   Clear
12:55 AM 62.6 °F 49.1 °F 61% 30.24 in 10.0 mi SE 10.4 mph - N/A   Clear
1:15 AM 61.7 °F 48.9 °F 63% 30.24 in 10.0 mi SE 8.1 mph - N/A   Clear
1:35 AM 60.3 °F 49.1 °F 67% 30.24 in 10.0 mi SE 8.1 mph - N/A   Clear
1:55 AM 59.7 °F 49.6 °F 69% 30.23 in 10.0 mi SE 8.1 mph - N/A   Clear
2:15 AM 59.0 °F 50.0 °F 72% 30.23 in 10.0 mi SE 8.1 mph - N/A   Clear
2:35 AM 58.3 °F 50.2 °F 74% 30.23 in 10.0 mi SE 6.9 mph - N/A   Clear
2:55 AM 57.7 °F 50.9 °F 78% 30.23 in 10.0 mi ESE 4.6 mph - N/A   Clear
3:15 AM 55.9 °F 49.6 °F 79% 30.23 in 10.0 mi NE 4.6 mph - N/A   Clear
3:35 AM 55.4 °F 50.2 °F 83% 30.22 in 10.0 mi NE 4.6 mph - N/A   Clear
3:55 AM 54.3 °F 49.6 °F 84% 30.21 in 10.0 mi ENE 5.8 mph - N/A   Clear
4:15 AM 52.7 °F 48.7 °F 86% 30.21 in 10.0 mi NE 6.9 mph - N/A   Clear
4:35 AM 52.7 °F 49.1 °F 88% 30.20 in 10.0 mi ENE 5.8 mph - N/A   Clear
4:55 AM 52.7 °F 49.5 °F 89% 30.20 in 10.0 mi ENE 6.9 mph - N/A   Clear
5:15 AM 52.7 °F 49.5 °F 89% 30.20 in 10.0 mi ENE 5.8 mph - N/A   Clear
5:35 AM 52.2 °F 49.6 °F 91% 30.20 in 10.0 mi ENE 6.9 mph - N/A   Clear
5:55 AM 52.7 °F 50.5 °F 92% 30.20 in 10.0 mi NE 8.1 mph - N/A   Clear
6:15 AM 52.7 °F 50.5 °F 92% 30.20 in 10.0 mi ENE 5.8 mph - N/A   Clear
6:35 AM 50.2 °F 48.6 °F 94% 30.20 in 10.0 mi ENE 8.1 mph - N/A   Clear
6:55 AM 50.2 °F 48.6 °F 94% 30.20 in 10.0 mi ENE 6.9 mph - N/A   Clear
7:15 AM 50.2 °F 49.1 °F 96% 30.21 in 10.0 mi ENE 6.9 mph - N/A   Clear
7:35 AM 50.2 °F 49.1 °F 96% 30.21 in 10.0 mi ENE 5.8 mph - N/A   Clear
7:55 AM 50.2 °F 49.1 °F 96% 30.21 in 7.0 mi ENE 6.9 mph - N/A   Clear
8:15 AM 52.7 °F 51.8 °F 97% 30.21 in 7.0 mi ENE 6.9 mph - N/A   Clear
8:35 AM 52.7 °F 51.8 °F 97% 30.21 in 7.0 mi ENE 5.8 mph - N/A   Scattered Clouds
8:55 AM 53.2 °F 52.0 °F 95% 30.21 in 10.0 mi ENE 4.6 mph - N/A   Scattered Clouds
9:15 AM 55.4 °F 53.1 °F 92% 30.21 in 10.0 mi ENE 4.6 mph - N/A   Overcast
9:35 AM 57.7 °F 54.9 °F 90% 30.21 in 10.0 mi East 4.6 mph - N/A   Overcast
9:55 AM 57.9 °F 54.3 °F 88% 30.21 in 10.0 mi SSE 5.8 mph - N/A   Overcast
10:55 AM 64.4 °F 56.7 °F 76% 30.21 in 10.0 mi South 6.9 mph - N/A   Scattered Clouds
11:15 AM 68.0 °F 57.9 °F 70% 30.20 in 10.0 mi South 6.9 mph - N/A   Scattered Clouds
11:35 AM 68.0 °F 57.0 °F 68% 30.20 in 10.0 mi SSE 8.1 mph - N/A   Scattered Clouds
11:55 AM 69.3 °F 56.3 °F 63% 30.19 in 10.0 mi SSE 6.9 mph - N/A   Clear
12:15 PM 71.6 °F 56.3 °F 58% 30.18 in 10.0 mi SSW 4.6 mph - N/A   Clear
12:35 PM 72.9 °F 55.9 °F 55% 30.18 in 10.0 mi SSE 5.8 mph - N/A   Clear
12:55 PM 72.9 °F 54.3 °F 52% 30.17 in 10.0 mi SSW 6.9 mph - N/A   Clear
1:15 PM 74.7 °F 53.2 °F 47% 30.16 in 10.0 mi South 11.5 mph 17.3 mph N/A   Clear
1:35 PM 75.4 °F 53.6 °F 47% 30.14 in 10.0 mi South 11.5 mph 16.1 mph N/A   Clear
1:55 PM 75.7 °F 52.2 °F 44% 30.12 in 10.0 mi SSE 12.7 mph 17.3 mph N/A   Clear
2:15 PM 77.9 °F 51.4 °F 40% 30.10 in 10.0 mi South 11.5 mph 17.3 mph N/A   Clear
2:35 PM 78.1 °F 52.0 °F 40% 30.09 in 10.0 mi South 11.5 mph 19.6 mph N/A   Clear
2:55 PM 78.6 °F 51.1 °F 38% 30.07 in 10.0 mi South 6.9 mph 21.9 mph N/A   Clear
3:15 PM 79.5 °F 48.4 °F 33% 30.06 in 10.0 mi SSE 10.4 mph 19.6 mph N/A   Clear
3:35 PM 80.8 °F 47.7 °F 31% 30.05 in 10.0 mi SSE 16.1 mph 23.0 mph N/A   Clear
3:55 PM 80.6 °F 47.1 °F 31% 30.03 in 10.0 mi SSE 12.7 mph 18.4 mph N/A   Clear
4:15 PM 81.0 °F 47.1 °F 30% 30.03 in 10.0 mi SSE 13.8 mph 17.3 mph N/A   Clear
4:35 PM 81.5 °F 46.9 °F 30% 30.02 in 10.0 mi SSE 17.3 mph 21.9 mph N/A   Clear
4:55 PM 81.7 °F 45.1 °F 28% 30.01 in 10.0 mi SSE 15.0 mph 23.0 mph N/A   Clear
5:15 PM 81.7 °F 45.7 °F 28% 30.00 in 10.0 mi SE 13.8 mph 19.6 mph N/A   Clear
5:35 PM 81.7 °F 45.5 °F 28% 29.99 in 10.0 mi SSE 15.0 mph - N/A   Clear
5:55 PM 81.3 °F 44.6 °F 27% 29.99 in 10.0 mi South 13.8 mph - N/A   Clear
6:15 PM 81.0 °F 43.7 °F 27% 29.99 in 10.0 mi SSE 15.0 mph - N/A   Clear
6:35 PM 80.6 °F 42.8 °F 26% 29.98 in 10.0 mi SSE 15.0 mph - N/A   Clear
6:55 PM 80.6 °F 42.1 °F 25% 29.98 in 10.0 mi SSE 15.0 mph - N/A   Clear
7:15 PM 80.1 °F 41.7 °F 26% 29.99 in 10.0 mi SSE 9.2 mph - N/A   Clear
7:35 PM 78.4 °F 40.1 °F 25% 29.98 in 10.0 mi SSE 11.5 mph - N/A   Clear
7:55 PM 77.7 °F 40.8 °F 27% 29.98 in 10.0 mi SSE 9.2 mph - N/A   Clear
8:15 PM 75.4 °F 40.1 °F 28% 29.98 in 10.0 mi SSE 6.9 mph - N/A   Clear
8:35 PM 72.9 °F 39.4 °F 30% 29.99 in 10.0 mi SE 5.8 mph - N/A   Clear
8:55 PM 72.7 °F 41.0 °F 32% 29.99 in 10.0 mi SE 5.8 mph - N/A   Clear
9:15 PM 70.3 °F 39.4 °F 32% 29.99 in 10.0 mi SE 4.6 mph - N/A   Clear
9:55 PM 68.0 °F 38.8 °F 34% 29.99 in 10.0 mi ESE 4.6 mph - N/A   Clear
10:15 PM 68.0 °F 38.8 °F 34% 30.00 in 10.0 mi ESE 6.9 mph - N/A   Clear
10:35 PM 68.0 °F 38.7 °F 34% 30.00 in 10.0 mi SE 6.9 mph - N/A   Clear
10:55 PM 68.0 °F 38.8 °F 34% 30.00 in 10.0 mi SE 9.2 mph - N/A   Clear
11:15 PM 68.0 °F 39.6 °F 35% 30.00 in 10.0 mi SE 10.4 mph - N/A   Clear
11:35 PM 68.0 °F 43.2 °F 41% 30.01 in 10.0 mi ESE 6.9 mph - N/A   Clear
11:55 PM 64.0 °F 44.1 °F 48% 30.01 in 10.0 mi East 6.9 mph - N/A   Clear